Wind_Speed
21 23 26 27 28 28 28 28 28 29 29 26 25 24 23 21 19 17 16 15 14 13 12 11 12 12 12 13 13 13 13 12 12 12 12 12 12 12 11 11 9 8 7
18 20 22 24 26 27 27 28 28 27 28 28 28 26 24 23 23 20 19 17 16 15 14 13 13 13 13 14 14 14 13 13 12 13 13 13 12 12 11 10 9 8 7
16 17 19 21 22 24 26 27 27 28 27 28 29 28 26 25 24 23 22 20 18 17 16 15 15 15 15 15 15 15 15 14 13 13 14 13 13 12 12 11 10 9 8
13 14 15 17 19 21 23 25 26 26 27 28 29 29 28 27 26 25 24 23 22 20 19 17 17 16 16 17 17 16 16 15 15 14 14 14 13 13 12 12 11 10 8
10 11 12 14 16 17 19 22 24 26 26 27 28 29 30 29 28 26 26 26 25 23 22 21 20 18 18 18 18 18 17 17 16 15 15 15 14 14 13 12 11 10 9
8 8 9 11 13 15 17 19 21 23 25 26 27 29 30 31 31 28 28 28 27 26 25 24 23 21 20 20 20 19 18 18 18 17 17 16 16 15 14 13 12 11 11
8 6 7 8 10 12 14 17 19 21 23 25 27 27 29 31 32 31 30 29 30 29 28 27 26 25 24 22 21 21 21 21 20 19 18 18 17 16 15 14 13 12 12
9 6 5 6 8 9 12 14 17 19 21 24 26 28 29 30 31 30 31 31 32 32 31 31 29 28 26 25 24 23 23 22 22 21 20 19 19 18 17 16 15 14 13
11 9 7 5 6 7 10 12 14 17 20 22 24 26 28 29 31 32 32 32 32 33 32 32 31 31 30 28 27 26 25 24 23 23 22 21 20 20 19 18 17 16 15
13 11 9 7 6 5 7 9 12 15 18 20 22 25 27 28 29 32 34 34 34 34 35 35 34 34 33 31 30 29 28 27 26 25 24 23 22 22 21 20 19 18 17
14 12 11 9 7 5 5 7 9 12 15 18 20 23 25 27 29 29 33 34 35 35 36 37 37 37 36 35 34 33 31 30 29 28 27 26 25 24 23 22 21 20 19
15 13 12 11 9 7 5 5 7 10 13 15 17 20 23 26 29 29 30 33 36 38 38 39 39 39 39 38 38 37 35 33 32 31 30 29 28 27 26 25 24 23 22
15 14 13 12 10 8 7 7 7 8 11 13 16 18 21 24 27 29 31 32 35 38 39 41 40 41 42 41 41 41 39 38 36 35 33 32 31 30 29 28 27 26 25
15 14 14 13 11 9 8 7 7 8 9 11 14 17 19 22 25 28 31 33 34 37 39 40 42 43 44 44 44 43 42 41 39 38 37 36 35 33 32 31 30 29 28
15 15 14 14 12 11 10 9 9 9 9 11 13 15 17 20 22 26 29 32 33 35 37 39 42 43 43 44 45 45 45 44 42 42 41 40 39 37 36 35 34 33 31
16 15 15 14 13 13 12 11 11 10 10 10 12 13 16 19 21 23 26 29 32 34 36 38 40 43 44 44 45 45 47 47 46 45 44 43 43 42 40 39 37 36 35
16 15 15 15 14 14 13 13 12 12 11 11 11 12 14 16 18 21 25 27 29 32 35 37 38 41 42 44 45 46 47 48 48 48 47 47 47 46 44 42 41 40 38
16 16 16 15 15 15 14 14 13 13 12 12 12 11 12 13 16 18 21 24 26 29 32 35 37 39 41 43 45 46 46 47 49 50 49 48 48 47 46 45 44 43 42
16 16 16 15 15 15 15 14 14 13 13 13 12 11 11 12 13 15 17 20 23 25 28 32 35 38 40 41 44 46 46 46 47 49 50 51 50 49 48 47 47 46 45
16 16 16 16 16 16 15 15 14 13 13 13 13 12 11 10 10 12 13 16 18 21 24 28 31 34 37 39 41 44 45 47 47 48 50 50 51 51 51 48 47 47 46
16 16 16 16 15 15 15 15 15 14 13 13 13 12 12 11 10 10 11 12 14 17 20 23 26 29 32 35 38 41 43 45 46 46 48 49 50 51 51 51 50 48 47
17 16 16 16 15 15 15 15 15 14 14 14 13 13 12 12 11 10 10 11 12 14 16 18 21 25 27 29 32 35 38 42 44 45 46 47 49 49 50 51 51 50 49
17 17 16 16 16 15 15 15 14 14 14 14 13 13 13 12 12 11 10 10 11 12 14 15 17 20 22 24 26 29 33 37 40 43 45 46 47 48 49 50 51 51 50
19 17 16 16 16 15 15 15 14 14 14 14 13 13 13 13 13 12 11 11 11 11 12 13 15 18 20 22 24 26 29 32 35 38 41 42 44 46 48 49 50 51 52
19 18 17 16 16 15 15 15 15 14 14 14 13 13 13 13 13 13 12 12 12 12 12 13 13 15 17 19 20 23 25 28 30 34 37 39 41 44 46 48 48 50 51
20 19 18 17 17 16 16 16 15 15 15 14 14 14 13 13 13 13 13 13 12 12 13 13 13 14 15 16 17 19 21 24 27 30 33 34 36 40 43 45 47 48 48
Wind_Direction
265 258 252 247 245 242 240 240 241 240 237 234 232 233 230 229 227 226 226 224 220 217 216 217 211 205 204 202 199 198 196 195 194 193 190 187 187 188 188 189 190 191 189
266 259 253 248 245 243 240 236 238 240 236 231 228 228 227 226 226 225 225 223 222 221 218 216 214 210 206 206 202 200 199 198 198 197 195 193 194 194 192 191 190 190 190
266 260 253 249 245 242 238 235 236 238 236 233 227 225 226 227 226 225 224 223 223 222 220 219 218 215 210 209 205 203 203 202 203 202 200 199 197 199 198 197 196 195 196
273 262 254 249 247 244 240 236 236 236 236 234 229 227 227 226 225 224 225 225 225 224 223 221 218 218 215 212 209 207 208 207 207 206 203 203 201 202 202 201 201 201 203
287 269 255 250 249 246 241 236 233 233 232 232 231 228 227 226 225 225 226 225 224 225 226 225 222 219 217 215 213 212 213 212 211 210 209 207 206 205 205 207 208 208 208
308 285 262 253 248 246 242 238 234 233 232 230 230 229 228 227 226 225 227 226 227 227 227 226 223 221 220 218 217 216 216 215 214 213 213 212 211 210 210 211 214 214 215
340 310 278 262 254 251 244 239 236 235 233 232 231 230 229 228 228 228 228 229 229 229 229 226 225 224 222 221 221 219 219 217 216 215 216 215 215 215 215 216 217 220 222
2 347 312 284 269 256 249 243 238 236 235 234 233 234 233 230 229 230 230 230 229 229 228 227 226 225 223 223 224 222 221 220 219 217 218 219 219 219 220 222 223 225 224
9 3 350 322 293 267 253 246 240 237 235 235 234 234 234 234 234 233 231 231 231 229 228 228 227 228 227 226 225 225 224 223 222 220 221 222 222 223 224 226 228 229 230
12 9 4 353 332 294 265 252 243 240 238 237 236 236 235 235 237 236 235 234 234 231 229 229 229 229 229 228 228 227 228 227 226 225 225 225 226 227 229 229 230 231 234
13 12 9 3 353 335 298 268 256 249 246 243 240 238 236 236 238 238 236 235 234 233 231 230 230 230 230 231 230 230 230 230 230 229 229 229 229 231 232 233 233 234 235
13 13 12 9 2 350 331 299 275 262 253 250 246 243 241 240 239 239 239 236 234 234 233 231 232 233 232 231 231 231 231 232 233 233 233 232 232 233 234 236 237 238 239
14 14 13 11 7 358 342 325 303 281 266 259 253 249 246 243 242 239 239 239 236 235 235 234 234 234 233 233 232 233 233 234 234 235 235 235 235 236 236 238 239 241 242
12 12 12 10 8 2 352 340 326 304 283 271 262 257 252 248 246 243 241 240 240 238 236 236 236 234 233 235 234 234 235 235 235 236 237 237 237 238 239 240 241 242 243
11 10 9 8 6 1 355 345 334 320 302 286 275 266 260 255 251 246 243 242 241 239 238 237 236 236 236 236 236 236 237 237 236 237 238 238 239 239 240 242 243 244 245
9 8 8 6 4 0 355 349 341 331 320 305 289 276 268 264 257 251 247 244 243 241 240 239 238 238 239 239 237 236 237 237 238 238 240 240 240 240 242 242 244 245 246
8 7 5 4 2 360 356 352 346 339 332 325 310 293 281 273 266 258 252 248 246 244 242 242 241 240 240 240 239 238 238 239 240 240 241 241 241 241 242 242 243 245 246
6 6 5 3 1 359 357 355 352 348 342 336 328 314 296 283 275 266 258 252 249 247 245 244 244 243 242 240 240 240 240 240 240 241 241 241 241 241 242 243 244 245 246
2 2 2 2 0 358 357 356 354 353 351 346 339 330 315 297 284 274 267 259 255 252 249 248 247 246 245 244 242 241 241 240 240 240 240 241 241 241 242 243 244 244 246
355 355 356 357 357 357 356 355 355 354 353 351 348 343 334 320 302 288 278 269 262 259 255 254 253 251 250 249 246 244 243 241 241 241 241 242 242 243 243 242 243 244 245
349 349 349 350 352 353 354 354 353 352 351 350 349 348 345 337 323 307 292 281 273 266 262 260 257 256 254 253 251 248 246 245 244 244 244 243 243 243 244 243 243 244 245
344 343 343 343 344 346 348 350 351 351 350 350 349 346 342 340 333 322 307 294 284 276 269 266 261 258 259 257 255 253 251 248 247 246 246 245 243 243 244 245 245 245 246
338 337 336 336 337 338 339 342 345 347 347 347 349 348 347 344 339 331 320 307 297 287 278 272 265 260 261 261 258 256 254 252 250 249 247 247 247 246 246 245 245 245 246
336 334 332 331 331 332 332 333 335 338 340 341 343 344 344 343 341 336 328 322 312 302 290 280 272 266 264 263 261 259 256 253 252 250 249 248 248 248 247 246 245 245 245
337 333 330 328 327 326 327 326 328 330 332 333 334 336 338 339 337 336 334 329 322 314 306 293 284 277 273 271 267 263 259 256 252 250 251 251 249 249 248 248 247 247 246
336 333 329 327 325 323 322 321 320 322 323 325 326 328 329 331 332 332 331 329 325 319 315 308 295 288 284 280 275 270 266 261 256 252 252 252 251 251 250 250 250 249 248
Height
5795 5796 5798 5801 5803 5806 5809 5813 5816 5820 5823 5827 5831 5835 5838 5842 5845 5848 5850 5853 5855 5857 5859 5861 5863 5865 5867 5869 5871 5874 5876 5878 5880 5882 5884 5886 5888 5889 5891 5893 5895 5896 5897
5790 5791 5793 5795 5797 5800 5803 5807 5810 5814 5818 5822 5826 5830 5833 5837 5841 5844 5847 5850 5852 5855 5857 5859 5861 5863 5865 5868 5870 5872 5875 5877 5879 5881 5883 5885 5887 5889 5890 5892 5894 5895 5897
5786 5787 5788 5790 5792 5795 5798 5801 5805 5808 5812 5816 5820 5825 5829 5832 5836 5840 5843 5846 5849 5852 5854 5857 5859 5861 5864 5866 5868 5871 5873 5875 5877 5879 5881 5884 5885 5887 5889 5891 5893 5895 5896
5782 5783 5784 5786 5788 5790 5792 5796 5799 5803 5807 5810 5814 5819 5824 5828 5831 5835 5839 5843 5846 5849 5852 5854 5856 5859 5861 5864 5866 5869 5871 5873 5876 5878 5880 5882 5884 5886 5888 5890 5892 5894 5895
5779 5779 5780 5782 5784 5786 5788 5791 5794 5798 5801 5805 5809 5814 5818 5822 5826 5830 5834 5838 5842 5845 5848 5851 5853 5856 5859 5861 5864 5866 5869 5871 5874 5876 5878 5880 5882 5884 5886 5888 5890 5892 5894
5777 5777 5778 5779 5780 5782 5784 5786 5789 5792 5796 5800 5804 5808 5812 5817 5821 5825 5829 5833 5837 5840 5843 5847 5850 5853 5856 5858 5861 5863 5866 5868 5871 5874 5876 5878 5880 5882 5885 5887 5889 5890 5892
5776 5776 5776 5776 5778 5779 5780 5782 5785 5788 5791 5795 5799 5803 5807 5811 5815 5819 5823 5827 5831 5835 5839 5842 5846 5849 5852 5855 5858 5860 5863 5865 5868 5871 5873 5876 5878 5880 5882 5884 5886 5888 5890
5776 5775 5775 5775 5775 5776 5777 5779 5781 5784 5787 5790 5794 5798 5801 5806 5809 5813 5817 5821 5825 5829 5833 5837 5841 5844 5848 5851 5854 5857 5859 5862 5865 5867 5870 5873 5875 5877 5880 5882 5884 5886 5887
5776 5775 5774 5774 5773 5774 5775 5776 5778 5780 5783 5786 5789 5793 5796 5800 5803 5808 5811 5815 5819 5823 5827 5831 5835 5839 5842 5846 5849 5853 5855 5858 5861 5864 5866 5869 5872 5874 5876 5879 5881 5883 5884
5777 5775 5774 5773 5772 5772 5773 5773 5775 5777 5779 5781 5784 5787 5791 5794 5797 5801 5805 5808 5812 5816 5821 5825 5829 5833 5837 5840 5844 5848 5851 5854 5857 5859 5862 5865 5868 5870 5873 5875 5877 5879 5881
5778 5776 5774 5773 5772 5771 5771 5771 5772 5774 5775 5777 5779 5782 5785 5787 5791 5794 5798 5802 5805 5809 5814 5818 5822 5826 5830 5834 5838 5841 5845 5849 5852 5855 5858 5860 5863 5866 5868 5871 5873 5875 5877
5779 5776 5774 5773 5771 5770 5770 5770 5770 5771 5772 5773 5775 5777 5779 5781 5784 5788 5791 5794 5798 5802 5806 5810 5814 5818 5822 5827 5831 5835 5838 5842 5846 5849 5852 5855 5858 5860 5863 5866 5868 5870 5872
5780 5777 5775 5773 5771 5770 5769 5768 5768 5768 5768 5769 5770 5771 5773 5775 5778 5781 5784 5786 5790 5794 5798 5802 5806 5810 5814 5818 5822 5827 5831 5835 5839 5843 5846 5849 5852 5855 5858 5860 5863 5865 5867
5780 5778 5775 5773 5771 5769 5768 5767 5766 5765 5765 5765 5765 5766 5767 5769 5771 5774 5776 5779 5782 5786 5790 5793 5797 5801 5806 5809 5814 5818 5823 5827 5831 5835 5838 5842 5845 5848 5851 5854 5857 5859 5861
5781 5778 5775 5773 5771 5769 5767 5765 5764 5763 5762 5761 5761 5761 5762 5763 5764 5767 5769 5772 5775 5778 5781 5784 5788 5792 5796 5800 5805 5809 5814 5818 5822 5826 5830 5834 5837 5841 5844 5847 5850 5852 5855
5781 5778 5775 5773 5770 5768 5766 5764 5762 5760 5758 5757 5756 5756 5756 5757 5758 5759 5761 5764 5766 5769 5772 5775 5778 5782 5787 5791 5795 5799 5804 5808 5812 5816 5820 5824 5828 5832 5835 5839 5842 5845 5847
5781 5778 5775 5773 5770 5767 5764 5762 5759 5757 5755 5754 5752 5751 5751 5751 5751 5752 5754 5756 5758 5761 5764 5766 5768 5772 5776 5781 5785 5789 5793 5797 5801 5806 5810 5814 5818 5822 5826 5829 5833 5836 5839
5781 5778 5775 5772 5769 5766 5763 5760 5758 5755 5753 5751 5749 5747 5746 5745 5745 5745 5746 5748 5750 5752 5755 5757 5759 5762 5766 5770 5774 5778 5782 5786 5790 5795 5799 5803 5807 5811 5815 5819 5822 5826 5829
5781 5778 5775 5772 5769 5766 5762 5759 5756 5754 5751 5749 5746 5744 5742 5741 5740 5740 5740 5741 5742 5744 5746 5748 5750 5753 5756 5759 5763 5767 5771 5775 5779 5783 5787 5791 5795 5800 5804 5808 5812 5815 5819
5781 5778 5774 5771 5768 5765 5761 5758 5755 5753 5750 5747 5745 5742 5740 5738 5737 5736 5735 5735 5736 5738 5739 5741 5742 5744 5747 5749 5752 5756 5760 5763 5767 5771 5775 5779 5783 5788 5792 5797 5801 5804 5808
5780 5776 5773 5770 5767 5764 5761 5757 5754 5752 5749 5746 5743 5741 5738 5736 5734 5733 5732 5731 5731 5732 5733 5734 5735 5736 5738 5740 5742 5745 5748 5751 5756 5759 5763 5768 5772 5776 5780 5784 5789 5792 5796
5778 5775 5772 5769 5766 5763 5759 5756 5753 5750 5748 5745 5742 5739 5737 5735 5732 5731 5729 5728 5728 5727 5727 5728 5728 5729 5730 5731 5732 5734 5737 5741 5746 5749 5752 5755 5759 5763 5768 5772 5776 5780 5784
5776 5773 5770 5767 5764 5761 5758 5755 5752 5749 5746 5744 5741 5738 5736 5733 5731 5729 5727 5725 5724 5723 5723 5723 5722 5722 5723 5724 5725 5726 5728 5730 5734 5737 5740 5745 5747 5752 5755 5759 5763 5768 5772
5773 5770 5767 5764 5761 5758 5755 5753 5750 5747 5745 5742 5740 5737 5734 5732 5729 5727 5725 5723 5721 5720 5719 5718 5718 5718 5718 5717 5718 5719 5719 5722 5724 5727 5729 5734 5736 5740 5743 5747 5751 5755 5759
5770 5766 5763 5761 5758 5755 5753 5750 5748 5745 5743 5740 5738 5735 5733 5730 5728 5725 5723 5721 5719 5717 5716 5714 5714 5713 5712 5712 5712 5712 5713 5714 5716 5717 5719 5723 5726 5728 5731 5735 5738 5742 5746
5766 5763 5760 5757 5755 5752 5750 5747 5745 5742 5740 5738 5735 5733 5731 5728 5726 5724 5721 5719 5717 5715 5713 5711 5710 5709 5708 5707 5706 5706 5706 5706 5708 5709 5710 5713 5715 5717 5721 5724 5727 5730 5733